LFSB Airport Information

Runway Information
Runway 08 Length 5969 ft width 197 ft
Elevation 881 ft Threshold 0 ft Heading 77
Runway 26 Length 5969 ft Width 197 ft
Elevation 884 ft Threshold 722 ft Heading 257
Runway 15 Length 12795 ft width 197 ft
Elevation 865 ft Threshold 0 ft Heading 155
Runway 33 Length 12795 ft Width 197 ft
Elevation 882 ft Threshold 0 ft Heading 335
Airport Frequencies
Type A/D Name APP Frequency 118.575 MHZ
Type ATIS Name ATIS Frequency 127.875 MHZ
Type GND Name GND Frequency 121.6 MHZ
Type INFO Name INFO Frequency 121.25 MHZ
Type PFLT Name PREFLIGHT Frequency 120.5 MHZ
Type TWR Name TWR Frequency 118.3 MHZ
Airport Navaids
Type VOR-DME Name Bale Mulhouse Frequency 117450 KHZ
Type NDB Name Bale Mulhouse Frequency 353 KHZ
Airport Weather Information & NOTAM
ADDS - METARS form results

(0601 UTC 21 July 2018)
 
METAR text: LFSB 210530Z VRB02KT 9999 FEW025 BKN150 18/15 Q1013 NOSIG
Conditions at: LFSB (BALE/MULHOUSE , FR) observed 0530 UTC 21 July 2018
Temperature: 18.0°C (64°F)
Dewpoint: 15.0°C (59°F) [RH = 83%]
Pressure (altimeter): 29.91 inches Hg (1013.0 mb)
Winds: variable direction winds at 2 MPH (2 knots; 1.0 m/s)
Visibility: 6 or more miles (10+ km)
Ceiling: 15000 feet AGL
Clouds: few clouds at 2500 feet AGL
broken clouds at 15000 feet AGL
Weather: no significant weather observed at this time